| time (UTC) | temp F | wind direction | speed MPH | gust MPH | rain 1hr in | rain 24hr in | rain mn in | humidity % | barometer mb |
| 20260831213137 | 100 | 176 | 6.0 | 14.0 | 0.00 | 0.00 | 0.00 | 12 | 1014.9 |
| 20260831211628 | 98 | 248 | 3.0 | 9.0 | 0.00 | 0.00 | 0.00 | 15 | 1015.1 |
| 20260831210140 | 99 | 212 | 1.0 | 8.0 | 0.00 | 0.00 | 0.00 | 16 | 1015.5 |
| 20260831204635 | 97 | 357 | 4.0 | 8.0 | 0.00 | 0.00 | 0.00 | 18 | 1015.9 |
| 20260831203128 | 96 | 221 | 1.0 | 11.0 | 0.00 | 0.00 | 0.00 | 18 | 1016.2 |
| 20260831200134 | 96 | 270 | 2.0 | 5.0 | 0.00 | 0.00 | 0.00 | 20 | 1016.7 |
| 20260831194629 | 96 | 180 | 3.0 | 6.0 | 0.00 | 0.00 | 0.00 | 20 | 1017.0 |
| 20260831193121 | 95 | 321 | 1.0 | 6.0 | 0.00 | 0.00 | 0.00 | 21 | 1017.1 |
| 20260831191633 | 96 | 216 | 4.0 | 8.0 | 0.00 | 0.00 | 0.00 | 21 | 1017.3 |
| 20260831190129 | 94 | 141 | 3.0 | 8.0 | 0.00 | 0.00 | 0.00 | 21 | 1017.7 |
| 20260831184621 | 94 | 298 | 1.0 | 4.0 | 0.00 | 0.00 | 0.00 | 23 | 1017.9 |
| 20260831183137 | 94 | 259 | 1.0 | 4.0 | 0.00 | 0.00 | 0.00 | 24 | 1018.0 |
| 20260831181648 | 93 | 107 | 1.0 | 4.0 | 0.00 | 0.00 | 0.00 | 23 | 1018.3 |
| 20260831180139 | 92 | 250 | 0.0 | 6.0 | 0.00 | 0.00 | 0.00 | 24 | 1018.4 |
| 20260831174635 | 91 | 274 | 0.0 | 6.0 | 0.00 | 0.00 | 0.00 | 25 | 1018.6 |
| 20260831173127 | 91 | 217 | 0.0 | 5.0 | 0.00 | 0.00 | 0.00 | 26 | 1018.7 |
| 20260831171622 | 91 | 94 | 0.0 | 3.0 | 0.00 | 0.00 | 0.00 | 26 | 1018.8 |
| 20260831170134 | 89 | 333 | 2.0 | 5.0 | 0.00 | 0.00 | 0.00 | 27 | 1018.9 |
| 20260831164621 | 89 | 300 | 1.0 | 7.0 | 0.00 | 0.00 | 0.00 | 27 | 1019.0 |
| 20260831163136 | 88 | 354 | 2.0 | 6.0 | 0.00 | 0.00 | 0.00 | 27 | 1019.0 |
| 20260831161627 | 87 | 296 | 1.0 | 8.0 | 0.00 | 0.00 | 0.00 | 30 | 1018.8 |
| 20260831160144 | 86 | 315 | 2.0 | 6.0 | 0.00 | 0.00 | 0.00 | 29 | 1018.8 |
| 20260831154629 | 85 | 350 | 1.0 | 3.0 | 0.00 | 0.00 | 0.00 | 31 | 1018.7 |
| 20260831153139 | 84 | 2 | 0.0 | 6.0 | 0.00 | 0.00 | 0.00 | 32 | 1018.8 |
| 20260831151634 | 84 | 298 | 1.0 | 6.0 | 0.00 | 0.00 | 0.00 | 34 | 1018.9 |
| 20260831150144 | 82 | 313 | 1.0 | 5.0 | 0.00 | 0.00 | 0.00 | 33 | 1018.8 |
| 20260831144634 | 81 | 303 | 1.0 | 6.0 | 0.00 | 0.00 | 0.00 | 36 | 1018.7 |
| 20260831143126 | 79 | 348 | 1.0 | 3.0 | 0.00 | 0.00 | 0.00 | 38 | 1018.4 |
| 20260831141639 | 77 | 339 | 1.0 | 4.0 | 0.00 | 0.00 | 0.00 | 38 | 1018.2 |
| 20260831140132 | 76 | 26 | 2.0 | 4.0 | 0.00 | 0.00 | 0.00 | 39 | 1018.0 |
| 20260831134645 | 73 | 333 | 0.0 | 4.0 | 0.00 | 0.00 | 0.00 | 45 | 1017.9 |
| 20260831133136 | 71 | 314 | 1.0 | 3.0 | 0.00 | 0.00 | 0.00 | 47 | 1017.6 |
| 20260831131653 | 70 | 355 | 0.0 | 0.0 | 0.00 | 0.00 | 0.00 | 53 | 1017.2 |
| 20260831130123 | 72 | 239 | 0.0 | 1.0 | 0.00 | 0.00 | 0.00 | 47 | 1017.0 |
| 20260831124639 | 74 | 161 | 0.0 | 0.0 | 0.00 | 0.00 | 0.00 | 44 | 1016.9 |
| 20260831123132 | 74 | 170 | 0.0 | 1.0 | 0.00 | 0.00 | 0.00 | 44 | 1016.7 |
| 20260831121649 | 74 | 135 | 0.0 | 0.0 | 0.00 | 0.00 | 0.00 | 43 | 1016.5 |
| 20260831120120 | 75 | 167 | 0.0 | 0.0 | 0.00 | 0.00 | 0.00 | 43 | 1016.5 |
| 20260831114631 | 77 | 161 | 0.0 | 4.0 | 0.00 | 0.00 | 0.00 | 40 | 1016.6 |
| 20260831113148 | 74 | 199 | 0.0 | 1.0 | 0.00 | 0.00 | 0.00 | 43 | 1016.6 |
| 20260831111639 | 72 | 292 | 0.0 | 1.0 | 0.00 | 0.00 | 0.00 | 47 | 1016.7 |
| 20260831110156 | 74 | 265 | 0.0 | 0.0 | 0.00 | 0.00 | 0.00 | 44 | 1016.6 |
| 20260831104628 | 75 | 225 | 0.0 | 0.0 | 0.00 | 0.00 | 0.00 | 43 | 1016.6 |
| 20260831103141 | 74 | 145 | 0.0 | 1.0 | 0.00 | 0.00 | 0.00 | 43 | 1016.5 |
| 20260831101635 | 73 | 123 | 0.0 | 0.0 | 0.00 | 0.00 | 0.00 | 41 | 1016.7 |
| 20260831100129 | 73 | 123 | 0.0 | 0.0 | 0.00 | 0.00 | 0.00 | 39 | 1016.5 |
| 20260831094625 | 74 | 256 | 0.0 | 1.0 | 0.00 | 0.00 | 0.00 | 37 | 1016.7 |
| 20260831093158 | 77 | 88 | 0.0 | 6.0 | 0.00 | 0.00 | 0.00 | 33 | 1016.7 |
| 20260831091629 | 75 | 133 | 0.0 | 1.0 | 0.00 | 0.00 | 0.00 | 36 | 1016.7 |
| 20260831090146 | 76 | 338 | 0.0 | 1.0 | 0.00 | 0.00 | 0.00 | 34 | 1016.6 |
| 20260831084636 | 76 | 83 | 0.0 | 0.0 | 0.00 | 0.00 | 0.00 | 35 | 1016.6 |
| 20260831083133 | 77 | 119 | 0.0 | 1.0 | 0.00 | 0.00 | 0.00 | 34 | 1016.5 |
| 20260831081623 | 78 | 61 | 0.0 | 3.0 | 0.00 | 0.00 | 0.00 | 31 | 1016.4 |
| 20260831080121 | 77 | 69 | 0.0 | 1.0 | 0.00 | 0.00 | 0.00 | 34 | 1016.5 |
| 20260831074632 | 79 | 67 | 0.0 | 1.0 | 0.00 | 0.00 | 0.00 | 31 | 1016.7 |
| 20260831073124 | 80 | 251 | 0.0 | 4.0 | 0.00 | 0.00 | 0.00 | 29 | 1016.6 |
| 20260831071621 | 84 | 154 | 0.0 | 4.0 | 0.00 | 0.00 | 0.00 | 24 | 1016.6 |
| 20260831070133 | 84 | 135 | 2.0 | 4.0 | 0.00 | 0.00 | 0.00 | 25 | 1016.4 |
| 20260831064650 | 83 | 153 | 3.0 | 6.0 | 0.00 | 0.00 | 0.00 | 26 | 1016.3 |
| 20260831063142 | 83 | 177 | 1.0 | 4.0 | 0.00 | 0.00 | 0.00 | 26 | 1016.3 |
| 20260831061655 | 86 | 204 | 1.0 | 10.0 | 0.00 | 0.00 | 0.00 | 24 | 1016.2 |
| 20260831060152 | 85 | 135 | 4.0 | 7.0 | 0.00 | 0.00 | 0.00 | 24 | 1016.1 |
| 20260831054622 | 85 | 152 | 2.0 | 6.0 | 0.00 | 0.00 | 0.00 | 24 | 1016.1 |
| 20260831053200 | 85 | 137 | 2.0 | 5.0 | 0.00 | 0.00 | 0.00 | 25 | 1016.1 |
| 20260831051629 | 84 | 178 | 0.0 | 2.0 | 0.00 | 0.00 | 0.00 | 26 | 1016.2 |
| 20260831050141 | 85 | 131 | 0.0 | 1.0 | 0.00 | 0.00 | 0.00 | 27 | 1016.4 |
| 20260831044636 | 85 | 81 | 0.0 | 0.0 | 0.00 | 0.00 | 0.00 | 26 | 1016.4 |
| 20260831043129 | 87 | 210 | 0.0 | 1.0 | 0.00 | 0.00 | 0.00 | 23 | 1016.3 |
| 20260831041624 | 88 | 99 | 0.0 | 1.0 | 0.00 | 0.00 | 0.00 | 22 | 1016.2 |
| 20260831040136 | 87 | 8 | 0.0 | 2.0 | 0.00 | 0.00 | 0.00 | 25 | 1016.2 |
| 20260831034634 | 88 | 145 | 0.0 | 4.0 | 0.00 | 0.00 | 0.00 | 22 | 1016.2 |
| 20260831033125 | 88 | 61 | 0.0 | 4.0 | 0.00 | 0.00 | 0.00 | 26 | 1016.1 |
| 20260831031637 | 87 | 130 | 0.0 | 2.0 | 0.00 | 0.00 | 0.00 | 28 | 1015.8 |
| 20260831030132 | 87 | 94 | 0.0 | 2.0 | 0.00 | 0.00 | 0.00 | 29 | 1015.3 |
| 20260831024624 | 86 | 81 | 0.0 | 0.0 | 0.00 | 0.00 | 0.00 | 33 | 1015.1 |
| 20260831023142 | 86 | 255 | 0.0 | 0.0 | 0.00 | 0.00 | 0.00 | 34 | 1015.0 |
| 20260831021633 | 87 | 255 | 0.0 | 0.0 | 0.00 | 0.00 | 0.00 | 29 | 1014.9 |
| 20260831020125 | 88 | 255 | 0.0 | 0.0 | 0.00 | 0.00 | 0.00 | 25 | 1014.8 |
| 20260831014640 | 89 | 255 | 0.0 | 0.0 | 0.00 | 0.00 | 0.00 | 24 | 1014.7 |
| 20260831013131 | 90 | 255 | 0.0 | 0.0 | 0.00 | 0.00 | 0.00 | 24 | 1014.4 |
| 20260831011627 | 92 | 255 | 0.0 | 0.0 | 0.00 | 0.00 | 0.00 | 23 | 1014.7 |
| 20260831010140 | 95 | 245 | 0.0 | 1.0 | 0.00 | 0.00 | 0.00 | 21 | 1014.7 |
| 20260831004632 | 97 | 242 | 0.0 | 1.0 | 0.00 | 0.00 | 0.00 | 18 | 1014.6 |
| 20260831003127 | 97 | 214 | 0.0 | 2.0 | 0.00 | 0.00 | 0.00 | 18 | 1014.7 |
| 20260831001637 | 97 | 305 | 0.0 | 1.0 | 0.00 | 0.00 | 0.00 | 16 | 1014.7 |
| 20260831000156 | 98 | 279 | 0.0 | 3.0 | 0.00 | 0.00 | 0.00 | 18 | 1014.7 |
| 20260830234626 | 99 | 282 | 0.0 | 2.0 | 0.00 | 0.00 | 0.00 | 16 | 1014.7 |
| 20260830233121 | 98 | 213 | 0.0 | 1.0 | 0.00 | 0.00 | 0.00 | 16 | 1014.9 |
| 20260830231634 | 97 | 290 | 0.0 | 4.0 | 0.00 | 0.00 | 0.00 | 17 | 1015.1 |
| 20260830230125 | 97 | 118 | 3.0 | 8.0 | 0.00 | 0.00 | 0.00 | 16 | 1015.1 |
| 20260830224701 | 97 | 305 | 2.0 | 7.0 | 0.00 | 0.00 | 0.00 | 16 | 1015.4 |
| 20260830223153 | 98 | 239 | 1.0 | 4.0 | 0.00 | 0.00 | 0.00 | 16 | 1015.5 |
| 20260830221627 | 97 | 360 | 5.0 | 8.0 | 0.00 | 0.00 | 0.00 | 17 | 1015.8 |
| 20260830220140 | 97 | 241 | 5.0 | 9.0 | 0.00 | 0.00 | 0.00 | 17 | 1015.8 |
| 20260830214653 | 97 | 249 | 4.0 | 8.0 | 0.00 | 0.00 | 0.00 | 18 | 1015.8 |